FW2588 Weather Reports


time (UTC)temp
C
wind
direction
speed
KPH
gust
KPH
rain 1hr
cm
rain 24hr
cm
rain mn
cm
humidity
%
barometer
mb
20260503204525 17 295 1.6 17.7 0.00 0.00 0.00 39 1015.7
20260503203024 17 332 4.8 16.1 0.00 0.00 0.00 37 1015.8
20260503201523 17 257 3.2 14.5 0.00 0.00 0.00 39 1016.0
20260503200022 18 346 6.4 16.1 0.00 0.00 0.00 37 1016.3
20260503194520 17 302 0.0 12.9 0.00 0.00 0.00 39 1016.5
20260503193018 17 314 4.8 19.3 0.00 0.00 0.00 38 1016.7
20260503191516 17 295 0.0 1.6 0.00 0.00 0.00 40 1016.8
20260503190035 17 11 0.0 0.0 0.00 0.00 0.00 37 1017.0
20260503184512 16 85 0.0 0.0 0.00 0.00 0.00 39 1017.3
20260503183015 16 179 0.0 16.1 0.00 0.00 0.00 42 1017.2
20260503181506 16 321 1.6 16.1 0.00 0.00 0.00 43 1017.5
20260503180010 15 13 4.8 14.5 0.00 0.00 0.00 43 1017.8
20260503174505 15 315 1.6 9.7 0.00 0.00 0.00 43 1017.8
20260503173115 15 51 0.0 14.5 0.00 0.00 0.00 43 1018.1
20260503171557 15 120 3.2 9.7 0.00 0.00 0.00 44 1018.4
20260503081535 2 327 0.0 0.0 0.00 0.00 0.00 90 1016.7
20260503071516 2 327 0.0 0.0 0.00 0.00 0.00 88 1016.1
20260503054600 3 328 0.0 0.0 0.00 0.00 0.00 83 1015.7
20260503053059 3 328 0.0 0.0 0.00 0.00 0.00 83 1015.8
20260503051600 3 328 0.0 0.0 0.00 0.00 0.00 83 1015.7
20260503050055 4 327 0.0 0.0 0.00 0.00 0.00 84 1015.5
20260503044553 4 328 0.0 0.0 0.00 0.00 0.00 82 1015.6
20260503043054 4 328 0.0 0.0 0.00 0.00 0.00 81 1015.5
20260503041548 4 328 0.0 0.0 0.00 0.00 0.00 81 1015.4
20260503040045 5 292 0.0 0.0 0.00 0.00 0.00 79 1015.1
20260503034542 5 5 0.0 0.0 0.00 0.00 0.00 77 1015.0
20260503033044 5 5 0.0 0.0 0.00 0.00 0.00 75 1014.9
20260503031528 6 5 0.0 0.0 0.00 0.00 0.00 73 1014.8
20260503030025 6 5 0.0 0.0 0.00 0.00 0.00 72 1014.7
20260503024522 7 5 0.0 0.0 0.00 0.00 0.00 68 1014.5
20260503023019 7 5 0.0 0.0 0.00 0.00 0.00 67 1014.4
20260503021515 8 5 0.0 0.0 0.00 0.00 0.00 66 1014.3
20260503020012 8 5 0.0 0.0 0.00 0.00 0.00 60 1014.1
20260503014509 9 5 0.0 0.0 0.00 0.00 0.00 58 1013.8
20260503013006 10 5 0.0 0.0 0.00 0.00 0.00 56 1013.6
20260503011504 10 10 0.0 0.0 0.00 0.00 0.00 52 1013.4
20260503010002 10 296 0.0 0.0 0.00 0.00 0.00 49 1013.2
20260503004504 11 248 0.0 0.0 0.00 0.00 0.00 46 1013.0
20260503003100 11 300 0.0 4.8 0.00 0.00 0.00 46 1012.7
20260503001558 11 302 0.0 16.1 0.00 0.00 0.00 45 1012.6
20260503000056 11 304 0.0 20.9 0.00 0.00 0.00 44 1012.3
20260502234557 12 292 0.0 14.5 0.00 0.00 0.00 44 1011.9
20260502233055 12 235 0.0 27.4 0.00 0.00 0.00 41 1011.8
20260502231554 12 326 8.0 24.1 0.00 0.00 0.00 40 1011.6
20260502230054 13 360 14.5 33.8 0.00 0.00 0.00 39 1011.4
20260502224605 13 299 1.6 41.8 0.00 0.00 0.00 40 1011.4
20260502223054 13 266 14.5 27.4 0.00 0.00 0.00 40 1011.3
20260502221552 13 360 0.0 9.7 0.00 0.00 0.00 42 1011.2
20260502220050 13 360 9.7 24.1 0.00 0.00 0.00 40 1011.0
20260502214550 13 285 11.3 27.4 0.00 0.00 0.00 40 1010.8
20260502213058 13 318 11.3 30.6 0.00 0.00 0.00 41 1010.5
20260502211600 13 315 11.3 22.5 0.00 0.00 0.00 42 1010.3
20260502210048 13 301 6.4 30.6 0.00 0.00 0.00 40 1010.2